Content
SEND FEEDBACK

Daily
Averages
Monthly
Summary
Brazil

MACAE, RIO DE JANEIRO


Home > South America > Brazil > Rio De Janeiro
Elevation: 7 feet     Latitude: 22 21S     Longitude: 041 46W

WEATHER
 
SELECT A DAY
Number of Records: 99,796;   Date Range: 6/30/96 - 8/10/14
 
SHARE

PRINT THIS DATA

[ ← Previous Day ]
WEATHER ALMANAC - FEBRUARY 16, 2013
[ Next Day → ]
[ °C ]   °F
Weather ElementAverageHighLow
Temperature84 °F100.4 °F (1:00 pm)75.2 °F (2:00 am)
Dewpoint72.6 °F75.2 °F (10:00 am)69.8 °F (6:00 pm)
Humidity70.4 %94 % (2:00 am)44 % (1:00 pm)
Barometer29.82 in29.86 in (1:00 am)29.77 in (4:00 pm)
Wind Speed9.3 mph15 mph (7:00 pm)
Weather ElementAverage
Visibility6.2 mi
Wind DirectionENE (54.3 °)

Weather ElementTotal
Precipitation---
Cooling Degree Days22.8 (Base 65)
Growing Degree Days37.8 (Base 50)
Averaged from 23 records on February 16, 2013
WEATHER CONDITIONS BREAKOUT
WIND DIRECTION BREAKOUT
WEATHER BY HOUR - FEBRUARY 16, 2013
[ °C ]   °F
Local TimeTemperatureDewpointHumidityBarometerVisibilityWind DirectionWind SpeedGust SpeedPrecipitationEventsConditions
1:00 AM77.0 °F73.4 °F89 %29.86 inNE (40°)6.9 mphClear
2:00 AM75.2 °F73.4 °F94 %29.86 inNNE (30°)4.6 mphClear
3:00 AM75.2 °F71.6 °F89 %29.83 inNE (40°)5.8 mphClear
4:00 AM75.2 °F71.6 °F89 %29.83 inNE (40°)5.8 mphClear
5:00 AM75.2 °F71.6 °F89 %29.83 inNNE (30°)3.5 mphClear
6:00 AM77.0 °F71.6 °F83 %29.83 inENE (60°)10.4 mphClear
7:00 AM75.2 °F73.4 °F94 %29.80 inNE (50°)3.5 mphClear
8:00 AM82.4 °F73.4 °F74 %29.83 inENE (60°)5.8 mphClear
9:00 AM84.2 °F73.4 °F70 %29.86 inNE (50°)9.2 mphClear
10:00 AM89.6 °F75.2 °F62 %29.86 inNE (50°)9.2 mphClear
11:00 AM93.2 °F75.2 °F56 %29.86 inENE (60°)10.4 mphClear
12:00 PM96.8 °F75.2 °F50 %29.83 inNNE (30°)9.2 mphClear
1:00 PM100.4 °F75.2 °F44 %29.83 inNE (40°)8.1 mphClear
2:00 PM93.2 °F71.6 °F49 %29.80 in6.2 miEast (100°)10.4 mphPartly Cloudy
3:00 PM91.4 °F71.6 °F52 %29.80 in6.2 miEast (90°)12.7 mphPartly Cloudy
4:00 PM89.6 °F71.6 °F55 %29.77 in6.2 miEast (90°)12.7 mphPartly Cloudy
5:00 PM89.6 °F71.6 °F55 %29.77 in6.2 miEast (80°)12.7 mphPartly Cloudy
6:00 PM84.2 °F69.8 °F62 %29.77 in6.2 miEast (90°)9.2 mphPartly Cloudy
7:00 PM87.8 °F71.6 °F58 %29.80 inNE (50°)15.0 mphClear
8:00 PM82.4 °F71.6 °F70 %29.80 inNE (40°)12.7 mphClear
9:00 PM80.6 °F71.6 °F74 %29.83 inNE (40°)10.4 mphClear
10:00 PM78.8 °F71.6 °F78 %29.86 inNE (40°)11.5 mphClear
11:00 PM78.8 °F73.4 °F83 %29.86 inNE (50°)15.0 mphClear
Hourly data recorded from SBME, located miles away from Macae, Rio De Janeiro







STORIES FROM OUR PARTNERS